STARLINK-1144, 44933

Orbit data source: Space-Track

STARLINK-1144, 44933 is a payload satellite owned by SpaceX/Seattle (US) in LEO that was launched on Tue, 07 Jan 2020 UTC via an FALCON 9 launch vehicle from the Air Force Eastern Test Range (AFETR). Payload-class satellites include a variety of spacecraft equipped with specific instruments for various scientific and technological missions. These include communications satellites like Starlink; space stations such as the ISS; scientific satellites like the Hubble; Earth observation satellites from companies like Planet Labs, Umbra, and HawkEye 360; GPS; miniature CubeSats for education and research; and military/defense satellites.

Loading next visibility...
Identifier
44933, 2020-001V
Orbit
LEO
Country
Flag of USUS
Related business
Manufacturer
SpaceX/Seattle
Mission
Partially operational Commercial Communications
Bus & Motor
STARLINK, Unknown motor
Mass
260 kg wet, ~248 kg dry
Launch date (UTC)
2020-01-07 (6 years ago)
Launch vehicle
FALCON 9
Launch site
Air Force Eastern Test Range (AFETR)
Object type
Payload
Rocket body
Debris
Shape & HBR
Box + 1 Pan, 10.1 m
Radar Cross Section
13.562 m², Large (>1 m²)

Expand to show TLE details & history
Last TLE update: 2 days ago

TLE from 2 days ago
0 STARLINK-1144
1 44933U 20001V   25312.78211049  .00118302  00000-0  12672-2 0  9996
2 44933  53.0438 100.9409 0008595 125.7040 234.4775 15.62953501323880
Epoch: 2025-11-08T18:46Z
TLE epoch observation values (Epoch: 2025-11-08T18:46:14.346Z)
Latitude
0.00004°
Longitude
131.17437°
Altitude
383.408 km
Speed
7.679 km/s
True Right ascension
06h 43m 45s
True Declination
0° 00' 00"
Sunlit
Object was in full shadow at epoch
Visualization orbit readout
Latitude
Unknown
Longitude
Unknown
Altitude
Unknown
Speed
Unknown
Apparent Right ascension
Unknown
Apparent Declination
Unknown
Sunlit
N/A
Visualization observer readout
Local Sidereal Time
04:14:20
Azimuth
Unknown
Elevation
Unknown
Doppler factor
Unknown
Orbital elements
Apogee altitude
385.218 km
Perigee altitude
373.602 km
Semi-major axis
6,757.547 km
Eccentricity
0.00086
Inclination
53.0438°
RAAN
100.9409°
Arg. of periapsis
125.704°
True anomaly
234.39739°
Mean anomaly
234.4775°
Eccentric anomaly
234.43744°
Mean motion
3.90715 °/min
Orbital period
92.14 mins
BSTAR
0.0012672
Loading maneuver chart data...
Computing Atmospheric mass density...

Documentation

Showing up to 5 results
|